GW5110 Weather Reports


Display with metric or nautical units.
time (UTC)temp
F
wind
direction
speed
MPH
gust
MPH
rain 1hr
in
rain 24hr
in
rain mn
in
humidity
%
barometer
mb
20260510142513 70 314 2.0 8.0 0.00 0.00 0.00 51 1021.0
20260510142010 71 249 0.0 4.0 0.00 0.00 0.00 51 1020.9
20260510141507 71 229 0.0 4.0 0.00 0.00 0.00 50 1020.9
20260510141004 69 261 4.0 7.0 0.00 0.00 0.00 52 1021.0
20260510140500 69 198 2.0 11.0 0.00 0.00 0.00 53 1021.2
20260510135959 69 261 8.0 9.0 0.00 0.00 0.00 53 1020.9
20260510135455 69 126 0.0 3.0 0.00 0.00 0.00 55 1020.9
20260510134952 68 245 3.0 7.0 0.00 0.00 0.00 55 1020.8
20260510134449 68 265 1.0 10.0 0.00 0.00 0.00 56 1021.0
20260510133946 67 256 0.0 4.0 0.00 0.00 0.00 57 1021.0
20260510133442 67 263 6.0 9.0 0.00 0.00 0.00 57 1021.0
20260510132937 67 346 0.0 6.0 0.00 0.00 0.00 58 1020.9
20260510132435 67 266 0.0 3.0 0.00 0.00 0.00 59 1021.0
20260510131932 67 160 0.0 1.0 0.00 0.00 0.00 58 1021.2
20260510131430 67 246 0.0 2.0 0.00 0.00 0.00 59 1021.2
20260510130926 69 257 0.0 0.0 0.00 0.00 0.00 61 1021.1
20260510130423 68 101 0.0 0.0 0.00 0.00 0.00 61 1021.2
20260510125920 67 309 0.0 0.0 0.00 0.00 0.00 65 1021.0
20260510125416 66 297 0.0 0.0 0.00 0.00 0.00 66 1021.0
20260510124913 64 304 0.0 0.0 0.00 0.00 0.00 69 1021.1
20260510124404 63 76 0.0 0.0 0.00 0.00 0.00 72 1021.1
20260510123900 60 60 0.0 0.0 0.00 0.00 0.00 78 1021.1
20260510123355 59 48 0.0 0.0 0.00 0.00 0.00 78 1020.9
20260510122852 60 52 0.0 0.0 0.00 0.00 0.00 76 1020.9
20260510122347 61 40 0.0 0.0 0.00 0.00 0.00 74 1020.8
20260510121844 62 171 0.0 0.0 0.00 0.00 0.00 73 1020.9
20260510121342 62 171 0.0 0.0 0.00 0.00 0.00 74 1020.8
20260510120839 60 171 0.0 0.0 0.00 0.00 0.00 77 1020.9
20260510120336 59 171 0.0 0.0 0.00 0.00 0.00 82 1020.8
20260510115831 59 171 0.0 0.0 0.00 0.00 0.00 88 1020.4
20260510115329 58 171 0.0 0.0 0.00 0.00 0.00 94 1020.4
20260510114824 56 172 0.0 0.0 0.00 0.00 0.00 97 1020.5
20260510114322 55 172 0.0 0.0 0.00 0.00 0.00 98 1020.4
20260510113817 54 172 0.0 0.0 0.00 0.00 0.00 99 1020.3
20260510113314 52 172 0.0 0.0 0.00 0.00 0.00 99 1020.4
20260510112811 51 172 0.0 0.0 0.00 0.00 0.00 99 1020.4
20260510112308 48 172 0.0 0.0 0.00 0.00 0.00 99 1020.3
20260510111804 46 224 0.0 0.0 0.00 0.00 0.00 99 1020.3
20260510111301 45 224 0.0 0.0 0.00 0.00 0.00 99 1020.2
20260510110800 45 224 0.0 0.0 0.00 0.00 0.00 99 1020.3
20260510110258 44 224 0.0 0.0 0.00 0.00 0.00 99 1019.9
20260510105759 44 224 0.0 0.0 0.00 0.00 0.00 99 1020.0
20260510105253 44 224 0.0 0.0 0.00 0.00 0.00 99 1019.9
20260510104750 43 224 0.0 0.0 0.00 0.00 0.00 99 1019.8
20260510104248 42 224 0.0 0.0 0.00 0.00 0.00 99 1019.6
20260510103744 42 224 0.0 0.0 0.00 0.00 0.00 99 1019.6
20260510103240 41 224 0.0 0.0 0.00 0.00 0.00 98 1019.6
20260510102735 41 224 0.0 0.0 0.00 0.00 0.00 98 1019.5
20260510102230 41 224 0.0 0.0 0.00 0.00 0.00 98 1019.4
20260510101728 42 224 0.0 0.0 0.00 0.00 0.00 98 1019.0
20260510101227 42 224 0.0 0.0 0.00 0.00 0.00 98 1019.1
20260510100722 42 224 0.0 0.0 0.00 0.00 0.00 98 1019.4
20260510100221 42 224 0.0 0.0 0.00 0.00 0.00 98 1019.1
20260510095720 43 224 0.0 0.0 0.00 0.00 0.00 98 1019.3
20260510095216 43 224 0.0 0.0 0.00 0.00 0.00 98 1019.4
20260510094715 43 253 0.0 0.0 0.00 0.00 0.00 98 1019.1
20260510094211 43 264 0.0 0.0 0.00 0.00 0.00 98 1019.1
20260510093707 43 258 0.0 0.0 0.00 0.00 0.00 98 1019.1
20260510093204 44 212 0.0 0.0 0.00 0.00 0.00 98 1019.3
20260510092700 44 212 0.0 0.0 0.00 0.00 0.00 98 1019.3
20260510092156 44 261 0.0 0.0 0.00 0.00 0.00 98 1019.3
20260510091652 44 256 0.0 0.0 0.00 0.00 0.00 98 1019.3
20260510091148 44 259 0.0 0.0 0.00 0.00 0.00 98 1018.9
20260510090645 44 256 0.0 0.0 0.00 0.00 0.00 98 1019.0
20260510090142 44 257 0.0 0.0 0.00 0.00 0.00 98 1018.7
20260510085637 44 242 0.0 0.0 0.00 0.00 0.00 98 1018.8
20260510085132 44 255 0.0 0.0 0.00 0.00 0.00 98 1018.9
20260510084629 43 247 0.0 0.0 0.00 0.00 0.00 98 1018.7
20260510084126 42 194 0.0 0.0 0.00 0.00 0.00 98 1018.7
20260510083622 42 219 0.0 0.0 0.00 0.00 0.00 98 1018.8
20260510083119 42 233 0.0 0.0 0.00 0.00 0.00 98 1018.5
20260510082615 42 242 0.0 0.0 0.00 0.00 0.00 98 1018.5
20260510082111 41 242 0.0 0.0 0.00 0.00 0.00 98 1018.6
20260510081606 41 242 0.0 0.0 0.00 0.00 0.00 98 1018.5
20260510081102 42 242 0.0 0.0 0.00 0.00 0.00 98 1018.6
20260510080601 42 242 0.0 0.0 0.00 0.00 0.00 98 1018.6
20260510080058 42 256 0.0 0.0 0.00 0.00 0.00 98 1018.5
20260510075555 42 244 0.0 0.0 0.00 0.00 0.00 98 1018.4
20260510075052 42 248 0.0 0.0 0.00 0.00 0.00 98 1018.4
20260510074550 42 248 0.0 0.0 0.00 0.00 0.00 98 1018.3
20260510074045 42 247 0.0 0.0 0.00 0.00 0.00 98 1018.3
20260510073541 43 245 0.0 0.0 0.00 0.00 0.00 98 1018.2
20260510073039 43 243 0.0 0.0 0.00 0.00 0.00 98 1018.3
20260510072535 43 235 0.0 0.0 0.00 0.00 0.00 97 1018.3
20260510072031 42 209 0.0 0.0 0.00 0.00 0.00 97 1018.4
20260510071527 42 209 0.0 0.0 0.00 0.00 0.00 97 1018.2
20260510071026 42 208 0.0 0.0 0.00 0.00 0.00 97 1018.2
20260510070522 42 208 0.0 0.0 0.00 0.00 0.00 97 1018.3
20260510070019 42 208 0.0 0.0 0.00 0.00 0.00 97 1018.2
20260510065515 42 208 0.0 0.0 0.00 0.00 0.00 97 1018.4
20260510065011 42 208 0.0 0.0 0.00 0.00 0.00 97 1018.3
20260510064508 42 208 0.0 0.0 0.00 0.00 0.00 97 1018.3
20260510064005 42 208 0.0 0.0 0.00 0.00 0.00 97 1018.3
20260510063501 42 208 0.0 0.0 0.00 0.00 0.00 97 1018.3
20260510062959 42 208 0.0 0.0 0.00 0.00 0.00 97 1018.1
20260510062454 42 208 0.0 0.0 0.00 0.00 0.00 97 1018.1
20260510061949 43 208 0.0 0.0 0.00 0.00 0.00 97 1018.1
20260510061447 43 208 0.0 0.0 0.00 0.00 0.00 97 1018.2
20260510060943 43 208 0.0 0.0 0.00 0.00 0.00 97 1018.1
20260510060440 43 208 0.0 0.0 0.00 0.00 0.00 97 1018.3
20260510055936 43 208 0.0 0.0 0.00 0.00 0.00 97 1018.1
20260510055432 43 208 0.0 0.0 0.00 0.00 0.00 97 1018.3
20260510054930 43 209 0.0 0.0 0.00 0.00 0.00 96 1018.1
20260510054425 43 209 0.0 0.0 0.00 0.00 0.00 96 1018.2
20260510053921 44 209 0.0 0.0 0.00 0.00 0.00 96 1018.1
20260510053416 44 209 0.0 0.0 0.00 0.00 0.00 96 1018.2
20260510052913 44 209 0.0 0.0 0.00 0.00 0.00 96 1018.3
20260510052409 44 209 0.0 0.0 0.00 0.00 0.00 96 1018.2
20260510051905 45 209 0.0 0.0 0.00 0.00 0.00 96 1018.3
20260510051402 45 209 0.0 0.0 0.00 0.00 0.00 96 1018.2
20260510050858 45 254 0.0 0.0 0.00 0.00 0.00 96 1018.3
20260510050355 46 254 0.0 0.0 0.00 0.00 0.00 96 1018.2
20260510045852 45 269 0.0 1.0 0.00 0.00 0.00 96 1018.4
20260510045349 45 222 0.0 0.0 0.00 0.00 0.00 95 1018.4
20260510044846 45 244 0.0 0.0 0.00 0.00 0.00 95 1018.4
20260510044343 45 214 0.0 0.0 0.00 0.00 0.00 95 1018.4
20260510043839 46 214 0.0 0.0 0.00 0.00 0.00 95 1018.1
20260510043335 46 214 0.0 0.0 0.00 0.00 0.00 95 1018.1
20260510042833 46 214 0.0 0.0 0.00 0.00 0.00 95 1018.2
20260510042329 46 214 0.0 0.0 0.00 0.00 0.00 95 1018.0
20260510041825 46 214 0.0 0.0 0.00 0.00 0.00 95 1018.2
20260510041323 46 235 0.0 0.0 0.00 0.00 0.00 94 1018.3
20260510040820 46 229 0.0 0.0 0.00 0.00 0.00 94 1018.4
20260510040316 46 214 0.0 0.0 0.00 0.00 0.00 94 1018.1
20260510035812 46 214 0.0 0.0 0.00 0.00 0.00 94 1018.1
20260510035308 46 226 0.0 0.0 0.00 0.00 0.00 94 1018.0
20260510034804 47 226 0.0 0.0 0.00 0.00 0.00 93 1018.1
20260510034301 47 226 0.0 0.0 0.00 0.00 0.00 93 1018.0
20260510033758 47 233 0.0 0.0 0.00 0.00 0.00 93 1018.0
20260510033255 47 198 0.0 0.0 0.00 0.00 0.00 93 1018.1
20260510032751 47 198 0.0 0.0 0.00 0.00 0.00 92 1017.9
20260510032248 47 198 0.0 0.0 0.00 0.00 0.00 92 1018.0
20260510031743 48 198 0.0 0.0 0.00 0.00 0.00 92 1017.9
20260510031239 48 198 0.0 0.0 0.00 0.00 0.00 92 1017.9
20260510030739 48 198 0.0 0.0 0.00 0.00 0.00 91 1017.7
20260510030236 48 198 0.0 0.0 0.00 0.00 0.00 91 1017.7
20260510025733 49 198 0.0 0.0 0.00 0.00 0.00 91 1018.0
20260510025231 49 198 0.0 0.0 0.00 0.00 0.00 91 1017.9
20260510024728 49 198 0.0 0.0 0.00 0.00 0.00 91 1017.9
20260510024224 49 197 0.0 0.0 0.00 0.00 0.00 90 1018.0
20260510023720 49 185 0.0 0.0 0.00 0.00 0.00 90 1017.7
20260510023217 49 185 0.0 0.0 0.00 0.00 0.00 89 1018.0
20260510022713 50 185 0.0 0.0 0.00 0.00 0.00 89 1018.0
20260510022208 50 185 0.0 0.0 0.00 0.00 0.00 89 1017.7
20260510021703 50 185 0.0 0.0 0.00 0.00 0.00 88 1017.6
20260510021201 50 186 0.0 0.0 0.00 0.00 0.00 88 1017.3
20260510020655 50 245 0.0 0.0 0.00 0.00 0.00 86 1017.5
20260510020151 51 245 0.0 0.0 0.00 0.00 0.00 86 1017.3
20260510015647 51 245 0.0 0.0 0.00 0.00 0.00 85 1017.3
20260510015144 52 245 0.0 0.0 0.00 0.00 0.00 85 1017.0
20260510014644 52 243 0.0 0.0 0.00 0.00 0.00 85 1016.9
20260510014142 52 170 0.0 0.0 0.00 0.00 0.00 85 1017.0
20260510013636 52 170 0.0 0.0 0.00 0.00 0.00 84 1016.8
20260510013132 52 170 0.0 0.0 0.00 0.00 0.00 83 1016.8
20260510012632 53 170 0.0 0.0 0.00 0.00 0.00 83 1016.7
20260510012128 53 170 0.0 0.0 0.00 0.00 0.00 82 1016.5
20260510011623 53 170 0.0 0.0 0.00 0.00 0.00 81 1016.5
20260510011119 53 170 0.0 0.0 0.00 0.00 0.00 81 1016.4
20260510010615 54 170 0.0 0.0 0.00 0.00 0.00 80 1016.2
20260510010113 54 170 0.0 0.0 0.00 0.00 0.00 79 1016.2
20260510005608 54 170 0.0 0.0 0.00 0.00 0.00 79 1016.0
20260510005106 55 170 0.0 0.0 0.00 0.00 0.00 78 1016.0
20260510004604 55 170 0.0 0.0 0.00 0.00 0.00 76 1016.1
20260510004102 56 170 0.0 0.0 0.00 0.00 0.00 76 1016.1
20260510003558 56 170 0.0 0.0 0.00 0.00 0.00 75 1015.9
20260510003054 56 170 0.0 0.0 0.00 0.00 0.00 73 1016.0
20260510002554 57 170 0.0 0.0 0.00 0.00 0.00 72 1016.1
20260510002052 58 219 0.0 0.0 0.00 0.00 0.00 71 1015.9
20260510001549 58 247 0.0 0.0 0.00 0.00 0.00 70 1015.8
20260510001048 59 242 0.0 0.0 0.00 0.00 0.00 69 1015.8
20260510000548 60 233 0.0 0.0 0.00 0.00 0.00 67 1015.7
20260510000045 61 238 0.0 0.0 0.00 0.00 0.00 66 1015.7
20260509235541 61 261 0.0 0.0 0.00 0.00 0.00 63 1015.6
20260509235038 62 228 0.0 0.0 0.00 0.00 0.00 61 1015.5
20260509234534 63 254 0.0 0.0 0.00 0.00 0.00 59 1015.6
20260509234032 63 255 0.0 0.0 0.00 0.00 0.00 56 1015.4
20260509233529 64 250 0.0 0.0 0.00 0.00 0.00 56 1015.4
20260509233027 65 246 3.0 3.0 0.00 0.00 0.00 54 1015.3
20260509232523 67 256 0.0 2.0 0.00 0.00 0.00 51 1015.3
20260509232020 67 257 0.0 4.0 0.00 0.00 0.00 51 1015.4
20260509231516 67 249 0.0 0.0 0.00 0.00 0.00 50 1015.4
20260509231014 67 235 0.0 1.0 0.00 0.00 0.00 51 1015.1
20260509230511 67 279 0.0 4.0 0.00 0.00 0.00 52 1015.2
20260509230008 67 256 5.0 7.0 0.00 0.00 0.00 52 1015.1
20260509225503 66 253 0.0 2.0 0.00 0.00 0.00 53 1015.3
20260509224959 67 250 2.0 7.0 0.00 0.00 0.00 52 1015.1
20260509224454 66 254 1.0 6.0 0.00 0.00 0.00 53 1015.4
20260509223952 66 241 2.0 6.0 0.00 0.00 0.00 53 1015.2
20260509223448 68 231 0.0 8.0 0.00 0.00 0.00 51 1015.3
20260509222946 68 279 0.0 2.0 0.00 0.00 0.00 50 1015.4
20260509222441 68 246 0.0 3.0 0.00 0.00 0.00 49 1015.3
20260509221937 69 262 0.0 2.0 0.00 0.00 0.00 50 1015.3
20260509221434 68 265 0.0 7.0 0.00 0.00 0.00 50 1015.3
20260509220930 68 255 5.0 8.0 0.00 0.00 0.00 50 1015.3
20260509220426 68 260 2.0 8.0 0.00 0.00 0.00 49 1015.6
20260509215922 69 273 0.0 8.0 0.00 0.00 0.00 48 1015.4
20260509215418 70 316 0.0 2.0 0.00 0.00 0.00 49 1015.2
20260509214915 68 254 0.0 2.0 0.00 0.00 0.00 50 1015.3
20260509214413 68 235 0.0 7.0 0.00 0.00 0.00 50 1015.3
20260509213909 68 267 0.0 4.0 0.00 0.00 0.00 49 1015.4
20260509213405 67 235 3.0 3.0 0.00 0.00 0.00 51 1015.4
20260509212903 68 272 3.0 9.0 0.00 0.00 0.00 50 1015.4
20260509212400 68 262 0.0 1.0 0.00 0.00 0.00 49 1015.5
20260509211856 67 284 2.0 3.0 0.00 0.00 0.00 51 1015.2
20260509211352 67 282 3.0 7.0 0.00 0.00 0.00 50 1015.3
20260509210848 67 242 2.0 3.0 0.00 0.00 0.00 52 1015.3
20260509210346 67 335 5.0 10.0 0.00 0.00 0.00 51 1015.1
20260509205845 67 244 1.0 6.0 0.00 0.00 0.00 50 1015.1
20260509205340 67 174 2.0 6.0 0.00 0.00 0.00 51 1015.1
20260509204838 67 250 6.0 8.0 0.00 0.00 0.00 50 1015.0
20260509204333 67 162 1.0 2.0 0.00 0.00 0.00 51 1015.2
20260509203829 66 195 2.0 7.0 0.00 0.00 0.00 51 1014.8
20260509203326 66 256 4.0 10.0 0.00 0.00 0.00 50 1015.1
20260509202823 66 264 0.0 3.0 0.00 0.00 0.00 50 1015.2
20260509202319 66 293 0.0 4.0 0.00 0.00 0.00 49 1015.0
20260509201818 66 261 0.0 4.0 0.00 0.00 0.00 50 1014.8
20260509201316 66 260 4.0 8.0 0.00 0.00 0.00 50 1014.6
20260509200812 67 241 6.0 7.0 0.00 0.00 0.00 51 1014.7
20260509200307 67 159 0.0 4.0 0.00 0.00 0.00 52 1014.8
20260509195804 67 247 4.0 6.0 0.00 0.00 0.00 50 1014.6
20260509195259 67 247 0.0 1.0 0.00 0.00 0.00 51 1014.7
20260509194759 67 295 0.0 0.0 0.00 0.00 0.00 52 1014.6
20260509194255 67 265 1.0 2.0 0.00 0.00 0.00 51 1014.6
20260509193752 67 254 3.0 4.0 0.00 0.00 0.00 50 1014.8
20260509193247 67 9 0.0 6.0 0.00 0.00 0.00 52 1014.7
20260509192743 68 277 2.0 6.0 0.00 0.00 0.00 49 1014.7
20260509192243 67 309 0.0 3.0 0.00 0.00 0.00 50 1014.6
20260509191739 67 258 3.0 6.0 0.00 0.00 0.00 50 1014.8
20260509191236 67 289 1.0 7.0 0.00 0.00 0.00 49 1014.8
20260509190732 68 343 0.0 3.0 0.00 0.00 0.00 47 1014.8
20260509190229 67 279 0.0 1.0 0.00 0.00 0.00 47 1014.5
20260509185726 67 257 0.0 0.0 0.00 0.00 0.00 47 1014.3
20260509185223 67 245 5.0 7.0 0.00 0.00 0.00 45 1014.6
20260509184720 67 287 0.0 2.0 0.00 0.00 0.00 46 1014.5
20260509184217 68 251 8.0 10.0 0.00 0.00 0.00 43 1014.5
20260509183713 71 287 5.0 7.0 0.00 0.00 0.00 41 1014.5
20260509183209 70 135 2.0 6.0 0.00 0.00 0.00 45 1014.5
20260509182704 69 21 0.0 6.0 0.00 0.00 0.00 46 1014.7
20260509182202 69 253 2.0 10.0 0.00 0.00 0.00 45 1014.6
20260509181700 68 77 1.0 4.0 0.00 0.00 0.00 47 1014.8
20260509181157 68 245 8.0 11.0 0.00 0.00 0.00 44 1014.8
20260509180654 68 241 7.0 9.0 0.00 0.00 0.00 47 1014.7
20260509180150 66 228 4.0 7.0 0.00 0.00 0.00 49 1014.8
20260509175646 67 219 5.0 6.0 0.00 0.00 0.00 48 1014.8
20260509175143 67 230 4.0 9.0 0.00 0.00 0.00 49 1014.8
20260509174639 67 265 1.0 4.0 0.00 0.00 0.00 48 1014.8
20260509174134 67 106 4.0 7.0 0.00 0.00 0.00 48 1014.7
20260509173630 67 130 2.0 6.0 0.00 0.00 0.00 47 1014.6
20260509173126 67 159 4.0 7.0 0.00 0.00 0.00 46 1014.8
20260509172623 67 248 6.0 14.0 0.00 0.00 0.00 47 1014.7
20260509172119 67 261 3.0 7.0 0.00 0.00 0.00 48 1015.1
20260509171615 68 210 4.0 7.0 0.00 0.00 0.00 46 1014.8
20260509171111 67 272 2.0 8.0 0.00 0.00 0.00 48 1015.1
20260509170607 67 253 1.0 2.0 0.00 0.00 0.00 48 1015.1
20260509170103 67 104 0.0 7.0 0.00 0.00 0.00 50 1015.1
20260509165602 66 264 5.0 10.0 0.00 0.00 0.00 49 1015.1
20260509165058 66 261 3.0 6.0 0.00 0.00 0.00 48 1015.3
20260509164554 67 242 2.0 4.0 0.00 0.00 0.00 47 1015.4
20260509164049 66 33 0.0 7.0 0.00 0.00 0.00 47 1015.4
20260509163548 66 305 2.0 4.0 0.00 0.00 0.00 48 1015.6
20260509163043 67 238 0.0 2.0 0.00 0.00 0.00 47 1015.5
20260509162540 68 291 3.0 7.0 0.00 0.00 0.00 48 1015.4
20260509162036 67 294 1.0 3.0 0.00 0.00 0.00 48 1015.5
20260509161533 66 244 2.0 6.0 0.00 0.00 0.00 48 1015.6
20260509161028 67 288 1.0 2.0 0.00 0.00 0.00 48 1015.3
20260509160524 67 174 0.0 1.0 0.00 0.00 0.00 48 1015.7
20260509160020 66 253 5.0 7.0 0.00 0.00 0.00 50 1015.6
20260509155516 66 70 1.0 3.0 0.00 0.00 0.00 50 1015.6
20260509155012 66 108 2.0 11.0 0.00 0.00 0.00 51 1015.2
20260509154509 67 270 4.0 8.0 0.00 0.00 0.00 48 1015.4
20260509154007 67 297 0.0 4.0 0.00 0.00 0.00 53 1015.3
20260509153503 65 308 0.0 6.0 0.00 0.00 0.00 57 1015.2
20260509153000 64 50 0.0 2.0 0.00 0.00 0.00 62 1015.3
20260509152455 62 252 0.0 0.0 0.00 0.00 0.00 62 1015.2
20260509151952 63 260 0.0 0.0 0.00 0.00 0.00 62 1015.3
20260509151449 64 257 0.0 0.0 0.00 0.00 0.00 60 1015.4
20260509150947 65 268 0.0 0.0 0.00 0.00 0.00 57 1015.4
20260509150444 64 261 0.0 3.0 0.00 0.00 0.00 61 1015.4
20260509145942 62 12 0.0 1.0 0.00 0.00 0.00 63 1015.3
20260509145437 61 292 0.0 0.0 0.00 0.00 0.00 65 1015.1
20260509144932 61 266 0.0 0.0 0.00 0.00 0.00 67 1015.2
20260509144430 60 86 0.0 6.0 0.00 0.00 0.00 66 1015.3
20260509143926 61 35 0.0 1.0 0.00 0.00 0.00 65 1015.3
20260509143424 61 288 0.0 0.0 0.00 0.00 0.00 64 1015.4
20260509142920 64 43 2.0 3.0 0.00 0.00 0.00 62 1015.3